IRIDIUM 95 [+] (27375 NORAD) Tracking and Keplerian Element Data

This shows tracking and keplerian element data for the satellite.

Feedback or suggestion? Click here.




ElementValue
Catalog27375
NameIRIDIUM 95 [+]
Epoch Orbit86759
Epoch Day198.85237856
Epoch Year2018
RAAN121.8563
Inclination86.3979
Eccentricity0.0001527
Argument of Perigee93.344
Mean Anonmoly266.7931
Mean Motion14.34217911
Decay Rate1.64E-06
L11 27375U 02005D 18198.85237856 .00000164 00000-0 51550-4 0 9993
L22 27375 86.3979 121.8563 0001527 93.3440 266.7931 14.34217911867594

Live tracking and technical data element details for IRIDIUM 95 [+] (NORAD 27375). IRIDIUM 95 [+] can be tracked NOW for your location showing map with azimuth and elevation plus other details from your city location.

Track the satellite on the map from your city or location and see movement details for azimuth, elevation, latitude, longitude, range, height, and movement on the map or in text.







IsCatalogInMostPopularTable: catalog: 27375, numindb: 47
Update: records affected: 1



GetName: 27375 IRIDIUM 95 [+]

Hit Count: updated at: Fri, 20 Jul 2018 07:02:31 GMT